Location: Sternwarte ZA, Rosenfeld-Brittheim
(48.2889°N, 8.6789°E)
Time: 16:49:43
(UTC+02:00)

ISS - Pass Details

Date: 27 May 2020
Orbit: 417 x 420 km, 51.6° (Epoch: 25 May)

Event Time Altitude Azimuth Distance (km) Brightness Sun altitude
Rises 22:20:04 0° 290° (WNW) 2,367 1.3 -9.2°
Reaches altitude 10° 22:22:11 10° 293° (WNW) 1,502 0.2 -9.4°
Maximum altitude 22:25:33 69° 18° (NNE) 452 -3.5 -9.8°
Enters shadow 22:28:53 10° 102° (ESE) 1,489 -1.4 -10.2°
